FW1419 Weather Reports


Display with metric or nautical units.
time (UTC)temp
F
wind
direction
speed
MPH
gust
MPH
rain 1hr
in
rain 24hr
in
rain mn
in
humidity
%
barometer
mb
20200530002824 78 259 5.0 14.0 0.00 0.00 0.00 55 1014.3
20200530002327 78 236 4.0 14.0 0.00 0.00 0.00 55 1014.3
20200530001832 78 202 9.0 14.0 0.00 0.00 0.00 55 1014.3
20200530001337 79 198 4.0 11.0 0.00 0.00 0.00 54 1014.2
20200530000820 79 216 5.0 10.0 0.00 0.00 0.00 53 1014.2
20200530000323 79 216 4.0 10.0 0.00 0.00 0.00 54 1014.2
20200529235825 80 207 5.0 10.0 0.00 0.00 0.00 51 1014.2
20200529235331 80 269 3.0 6.0 0.00 0.00 0.00 51 1014.2
20200529234836 81 219 2.0 6.0 0.00 0.00 0.00 50 1014.2
20200529234319 81 225 4.0 6.0 0.00 0.00 0.00 50 1014.2
20200529233824 81 192 0.0 6.0 0.00 0.00 0.00 50 1014.2
20200529233326 81 153 0.0 3.0 0.00 0.00 0.00 51 1014.2
20200529232828 80 219 0.0 4.0 0.00 0.00 0.00 51 1014.4
20200529232332 80 224 0.0 5.0 0.00 0.00 0.00 54 1014.4
20200529231833 79 246 2.0 6.0 0.00 0.00 0.00 55 1014.4
20200529231336 79 219 4.0 7.0 0.00 0.00 0.00 56 1014.8
20200529230820 78 275 4.0 7.0 0.00 0.00 0.00 56 1014.8
20200529230324 79 227 1.0 5.0 0.00 0.00 0.00 57 1014.8
20200529225833 78 277 1.0 7.0 0.00 0.00 0.00 58 1015.0
20200529225331 77 252 2.0 7.0 0.00 0.00 0.00 59 1015.0
20200529224832 77 169 1.0 8.0 0.00 0.00 0.00 59 1015.0
20200529224335 77 240 5.0 8.0 0.00 0.00 0.00 60 1015.1
20200529223836 76 224 3.0 9.0 0.00 0.00 0.00 61 1015.1
20200529223338 77 246 4.0 9.0 0.00 0.00 0.00 60 1015.1
20200529222820 77 290 3.0 6.0 0.00 0.00 0.00 60 1015.1
20200529222323 77 217 4.0 11.0 0.00 0.00 0.00 60 1015.1
20200529221825 77 281 3.0 11.0 0.00 0.00 0.00 60 1015.1
20200529221328 77 225 6.0 10.0 0.00 0.00 0.00 60 1014.9
20200529220830 77 246 4.0 9.0 0.00 0.00 0.00 60 1014.9
20200529220332 78 267 3.0 9.0 0.00 0.00 0.00 58 1014.9
20200529215822 79 256 2.0 11.0 0.00 0.00 0.00 56 1014.8
20200529215322 79 297 3.0 12.0 0.00 0.00 0.00 55 1014.8
20200529214824 79 269 4.0 12.0 0.00 0.00 0.00 55 1014.8
20200529214327 79 288 6.0 11.0 0.00 0.00 0.00 55 1014.8
20200529213829 78 282 3.0 11.0 0.00 0.00 0.00 56 1014.8
20200529213332 78 267 6.0 12.0 0.00 0.00 0.00 57 1014.8
20200529212833 78 179 5.0 12.0 0.00 0.00 0.00 59 1014.7
20200529212331 78 192 8.0 18.0 0.00 0.00 0.00 57 1014.7
20200529211833 78 183 8.0 18.0 0.00 0.00 0.00 57 1014.7
20200529211335 78 267 7.0 17.0 0.00 0.00 0.00 58 1014.4
20200529210837 79 225 9.0 17.0 0.00 0.00 0.00 56 1014.4
20200529210323 81 211 5.0 17.0 0.00 0.00 0.00 55 1014.4
20200529205825 81 238 8.0 17.0 0.00 0.00 0.00 53 1014.1
20200529205327 82 205 6.0 16.0 0.00 0.00 0.00 53 1014.1
20200529204832 82 267 9.0 13.0 0.00 0.00 0.00 50 1014.1
20200529204334 83 292 3.0 13.0 0.00 0.00 0.00 50 1014.2
20200529203832 83 273 5.0 10.0 0.00 0.00 0.00 50 1014.2
20200529203334 83 265 3.0 12.0 0.00 0.00 0.00 50 1014.2
20200529202835 82 261 5.0 12.0 0.00 0.00 0.00 50 1014.1
20200529202337 82 293 3.0 13.0 0.00 0.00 0.00 50 1014.1
20200529201838 83 192 5.0 11.0 0.00 0.00 0.00 50 1014.1
20200529201320 83 232 1.0 13.0 0.00 0.00 0.00 49 1014.2
20200529200822 82 233 4.0 11.0 0.00 0.00 0.00 51 1014.2
20200529200329 82 269 5.0 11.0 0.00 0.00 0.00 50 1014.2
20200529195829 82 215 4.0 10.0 0.00 0.00 0.00 50 1014.1
20200529195332 82 223 3.0 7.0 0.00 0.00 0.00 50 1014.1
20200529194837 82 246 2.0 11.0 0.00 0.00 0.00 51 1014.1
20200529194320 82 207 3.0 10.0 0.00 0.00 0.00 49 1014.5
20200529193822 82 259 5.0 9.0 0.00 0.00 0.00 49 1014.5
20200529193325 82 240 0.0 9.0 0.00 0.00 0.00 50 1014.5
20200529192827 82 286 2.0 5.0 0.00 0.00 0.00 50 1014.7
20200529192330 82 282 1.0 7.0 0.00 0.00 0.00 50 1014.7
20200529191833 82 225 1.0 11.0 0.00 0.00 0.00 50 1014.7
20200529191333 81 265 1.0 11.0 0.00 0.00 0.00 52 1014.9
20200529190834 81 236 3.0 6.0 0.00 0.00 0.00 51 1014.9
20200529190320 80 238 0.0 5.0 0.00 0.00 0.00 53 1014.9
20200529185821 80 221 1.0 6.0 0.00 0.00 0.00 53 1015.2
20200529185324 80 219 3.0 9.0 0.00 0.00 0.00 54 1015.2
20200529184826 80 267 4.0 11.0 0.00 0.00 0.00 53 1015.2
20200529184327 80 220 3.0 10.0 0.00 0.00 0.00 54 1015.2
20200529183829 79 240 5.0 10.0 0.00 0.00 0.00 53 1015.2
20200529183332 79 301 0.0 4.0 0.00 0.00 0.00 54 1015.2
20200529182834 78 276 2.0 8.0 0.00 0.00 0.00 55 1015.6
20200529182334 78 229 5.0 9.0 0.00 0.00 0.00 56 1015.6
20200529181836 78 271 0.0 9.0 0.00 0.00 0.00 57 1015.6
20200529181324 78 252 5.0 9.0 0.00 0.00 0.00 56 1015.7
20200529180833 78 259 3.0 6.0 0.00 0.00 0.00 57 1015.7
20200529180335 78 275 3.0 5.0 0.00 0.00 0.00 57 1015.7
20200529175836 78 200 3.0 5.0 0.00 0.00 0.00 58 1015.7
20200529175337 77 271 3.0 9.0 0.00 0.00 0.00 58 1015.7
20200529174819 77 262 3.0 9.0 0.00 0.00 0.00 58 1015.7
20200529174324 77 238 3.0 6.0 0.00 0.00 0.00 59 1015.8
20200529173826 76 263 3.0 9.0 0.00 0.00 0.00 59 1015.8
20200529173327 76 225 3.0 9.0 0.00 0.00 0.00 59 1015.8
20200529172828 76 181 0.0 6.0 0.00 0.00 0.00 60 1015.8
20200529172329 76 266 1.0 6.0 0.00 0.00 0.00 62 1015.8
20200529171831 75 215 4.0 6.0 0.00 0.00 0.00 62 1015.8
20200529171333 76 284 0.0 3.0 0.00 0.00 0.00 61 1015.8
20200529170837 76 279 1.0 3.0 0.00 0.00 0.00 63 1015.8
20200529170319 76 241 0.0 1.0 0.00 0.00 0.00 63 1015.8
20200529165822 75 221 0.0 0.0 0.00 0.00 0.00 65 1015.9
20200529165323 73 268 0.0 1.0 0.00 0.00 0.00 67 1015.9
20200529164825 73 288 0.0 1.0 0.00 0.00 0.00 66 1015.9
20200529164327 73 235 0.0 5.0 0.00 0.00 0.00 67 1016.2
20200529163830 72 231 0.0 5.0 0.00 0.00 0.00 69 1016.2
20200529163332 72 136 0.0 4.0 0.00 0.00 0.00 70 1016.2
20200529162833 71 229 0.0 5.0 0.00 0.00 0.00 70 1016.0
20200529162334 71 232 3.0 5.0 0.00 0.00 0.00 70 1016.0
20200529161836 71 240 0.0 0.0 0.00 0.00 0.00 70 1016.0
20200529161321 71 43 0.0 0.0 0.00 0.00 0.00 71 1016.0
20200529160824 70 116 0.0 0.0 0.00 0.00 0.00 73 1016.0
20200529160326 70 257 0.0 0.0 0.00 0.00 0.00 74 1016.0
20200529155828 69 100 0.0 0.0 0.00 0.00 0.00 77 1016.0
20200529155333 68 216 0.0 0.0 0.00 0.00 0.00 77 1016.0
20200529154835 68 127 0.0 0.0 0.00 0.00 0.00 79 1016.0
20200529154336 67 159 0.0 0.0 0.00 0.00 0.00 81 1015.2
20200529153838 66 141 0.0 3.0 0.00 0.00 0.00 84 1015.2
20200529153339 65 86 0.0 4.0 0.00 0.00 0.00 87 1015.2
20200529152822 63 53 0.0 4.0 0.00 0.00 0.00 88 1015.4
20200529152326 63 82 1.0 4.0 0.00 0.00 0.00 88 1015.4
20200529151828 63 45 0.0 0.0 0.00 0.00 0.00 88 1015.4
20200529151334 63 44 0.0 0.0 0.00 0.00 0.00 88 1015.9
20200529150837 63 44 0.0 0.0 0.00 0.00 0.00 89 1015.9
20200529150335 63 35 0.0 0.0 0.00 0.00 0.00 89 1015.9
20200529145834 62 267 0.0 0.0 0.00 0.00 0.00 90 1015.7
20200529145333 62 267 0.0 0.0 0.00 0.00 0.00 90 1015.7
20200529144836 62 249 0.0 0.0 0.00 0.00 0.00 91 1015.7
20200529144337 62 238 0.0 0.0 0.00 0.00 0.00 91 1015.5
20200529143839 62 16 0.0 0.0 0.00 0.00 0.00 90 1015.5
20200529143321 62 16 0.0 0.0 0.00 0.00 0.00 90 1015.5
20200529142826 62 16 0.0 0.0 0.00 0.00 0.00 91 1015.2
20200529142328 61 261 0.0 0.0 0.00 0.00 0.00 90 1015.2
20200529141831 61 261 0.0 0.0 0.00 0.00 0.00 90 1015.2
20200529141337 61 279 0.0 0.0 0.00 0.00 0.00 90 1014.6
20200529140820 61 271 0.0 0.0 0.00 0.00 0.00 90 1014.6
20200529140324 61 270 0.0 0.0 0.00 0.00 0.00 91 1014.6
20200529135826 61 251 0.0 5.0 0.00 0.00 0.00 91 1014.0
20200529135327 61 266 0.0 5.0 0.00 0.00 0.00 91 1014.0
20200529134828 60 251 0.0 2.0 0.00 0.00 0.00 91 1014.0
20200529134329 60 250 0.0 2.0 0.00 0.00 0.00 90 1013.7
20200529133830 60 267 0.0 1.0 0.00 0.00 0.00 90 1013.7
20200529133332 60 244 0.0 3.0 0.00 0.00 0.00 90 1013.7
20200529132833 60 272 1.0 3.0 0.00 0.00 0.00 89 1013.5
20200529132332 60 253 0.0 0.0 0.00 0.00 0.00 89 1013.5
20200529131834 60 271 0.0 0.0 0.00 0.00 0.00 88 1013.5
20200529131339 60 271 0.0 2.0 0.00 0.00 0.00 89 1013.0
20200529130820 60 232 0.0 3.0 0.00 0.00 0.00 88 1013.0
20200529130322 59 231 1.0 4.0 0.00 0.00 0.00 89 1013.0
20200529125825 59 222 1.0 4.0 0.00 0.00 0.00 89 1013.3
20200529125326 59 217 0.0 0.0 0.00 0.00 0.00 89 1013.3
20200529124829 59 45 0.0 0.0 0.00 0.00 0.00 89 1013.3
20200529124329 59 47 0.0 0.0 0.00 0.00 0.00 89 1013.4
20200529123831 59 46 0.0 0.0 0.00 0.00 0.00 89 1013.4
20200529123332 59 47 0.0 0.0 0.00 0.00 0.00 89 1013.4
20200529122833 59 47 0.0 0.0 0.00 0.00 0.00 89 1013.8
20200529122332 59 71 0.0 0.0 0.00 0.00 0.00 89 1013.8
20200529121835 59 90 0.0 0.0 0.00 0.00 0.00 89 1013.8
20200529121321 59 90 0.0 0.0 0.00 0.00 0.00 89 1013.8
20200529120822 59 89 0.0 0.0 0.00 0.00 0.00 88 1013.8
20200529120324 59 90 0.0 0.0 0.00 0.00 0.00 88 1013.8
20200529115829 59 90 0.0 0.0 0.00 0.00 0.00 88 1013.8
20200529115331 59 90 0.0 0.0 0.00 0.00 0.00 88 1013.8
20200529114833 59 89 0.0 0.0 0.00 0.00 0.00 88 1013.8
20200529114335 59 90 0.0 0.0 0.00 0.00 0.00 88 1013.8
20200529113837 59 90 0.0 0.0 0.00 0.00 0.00 87 1013.8
20200529113339 60 90 0.0 0.0 0.00 0.00 0.00 88 1013.8
20200529112842 60 85 0.0 0.0 0.00 0.00 0.00 88 1013.8
20200529112320 60 74 0.0 0.0 0.00 0.00 0.00 89 1013.8
20200529111827 60 74 0.0 0.0 0.00 0.00 0.00 89 1013.8
20200529111328 60 68 0.0 0.0 0.00 0.00 0.00 89 1013.7
20200529110829 60 254 0.0 0.0 0.00 0.00 0.00 90 1013.7
20200529110331 60 254 0.0 0.0 0.00 0.00 0.00 89 1013.7
20200529105834 60 254 0.0 0.0 0.00 0.00 0.00 89 1013.5
20200529105335 60 254 0.0 0.0 0.00 0.00 0.00 89 1013.5
20200529104837 60 254 0.0 0.0 0.00 0.00 0.00 89 1013.5
20200529104320 60 254 0.0 0.0 0.00 0.00 0.00 88 1013.4
20200529103822 61 225 0.0 0.0 0.00 0.00 0.00 89 1013.4
20200529103322 60 219 0.0 0.0 0.00 0.00 0.00 89 1013.4
20200529102825 60 91 0.0 0.0 0.00 0.00 0.00 87 1013.2
20200529102326 60 91 0.0 0.0 0.00 0.00 0.00 87 1013.2
20200529101833 60 90 0.0 0.0 0.00 0.00 0.00 87 1013.2
20200529101335 60 230 0.0 0.0 0.00 0.00 0.00 88 1013.4
20200529100838 60 230 0.0 0.0 0.00 0.00 0.00 88 1013.4
20200529100321 60 230 0.0 0.0 0.00 0.00 0.00 89 1013.4
20200529095826 60 230 0.0 0.0 0.00 0.00 0.00 88 1013.3
20200529095331 60 230 0.0 0.0 0.00 0.00 0.00 88 1013.3
20200529094833 61 230 0.0 0.0 0.00 0.00 0.00 88 1013.3
20200529094336 61 230 0.0 0.0 0.00 0.00 0.00 88 1013.2
20200529093839 61 230 0.0 0.0 0.00 0.00 0.00 88 1013.2
20200529093321 61 230 0.0 0.0 0.00 0.00 0.00 88 1013.2
20200529092823 61 230 0.0 0.0 0.00 0.00 0.00 88 1013.2
20200529092330 61 230 0.0 0.0 0.00 0.00 0.00 88 1013.2
20200529091833 61 230 0.0 0.0 0.00 0.00 0.00 87 1013.2
20200529091335 61 230 0.0 0.0 0.00 0.00 0.00 87 1013.2
20200529090837 61 230 0.0 0.0 0.00 0.00 0.00 88 1013.2
20200529090339 61 230 0.0 0.0 0.00 0.00 0.00 87 1013.2
20200529085821 61 230 0.0 0.0 0.00 0.00 0.00 86 1013.5
20200529085323 61 230 0.0 0.0 0.00 0.00 0.00 86 1013.5
20200529084825 61 230 0.0 0.0 0.00 0.00 0.00 86 1013.5
20200529084327 61 230 0.0 0.0 0.00 0.00 0.00 86 1013.6
20200529083829 61 230 0.0 0.0 0.00 0.00 0.00 86 1013.6
20200529083332 62 230 0.0 0.0 0.00 0.00 0.00 85 1013.6
20200529082834 62 230 0.0 0.0 0.00 0.00 0.00 85 1013.6
20200529082321 62 230 0.0 0.0 0.00 0.00 0.00 85 1013.6
20200529081823 62 230 0.0 0.0 0.00 0.00 0.00 86 1013.6
20200529081328 62 230 0.0 0.0 0.00 0.00 0.00 86 1014.6
20200529080830 62 230 0.0 0.0 0.00 0.00 0.00 86 1014.6
20200529080333 62 230 0.0 0.0 0.00 0.00 0.00 85 1014.6
20200529075835 62 230 0.0 0.0 0.00 0.00 0.00 85 1014.7
20200529075338 62 230 0.0 0.0 0.00 0.00 0.00 85 1014.7
20200529074821 62 230 0.0 0.0 0.00 0.00 0.00 85 1014.7
20200529074323 62 230 0.0 0.0 0.00 0.00 0.00 85 1014.9
20200529073825 62 230 0.0 0.0 0.00 0.00 0.00 85 1014.9
20200529073328 63 230 0.0 0.0 0.00 0.00 0.00 84 1014.9
20200529072834 63 230 0.0 0.0 0.00 0.00 0.00 84 1015.0
20200529072336 63 230 0.0 0.0 0.00 0.00 0.00 84 1015.0
20200529071840 63 230 0.0 0.0 0.00 0.00 0.00 84 1015.0
20200529071323 63 230 0.0 0.0 0.00 0.00 0.00 85 1015.2
20200529070825 63 230 0.0 0.0 0.00 0.00 0.00 84 1015.2
20200529070327 63 230 0.0 0.0 0.00 0.00 0.00 83 1015.2
20200529065826 63 230 0.0 0.0 0.00 0.00 0.00 83 1015.2
20200529065329 63 230 0.0 0.0 0.00 0.00 0.00 82 1015.2
20200529064831 64 230 0.0 0.0 0.00 0.00 0.00 82 1015.2
20200529064334 64 230 0.0 0.0 0.00 0.00 0.00 81 1015.4
20200529063836 64 230 0.0 0.0 0.00 0.00 0.00 81 1015.4
20200529063328 64 225 0.0 0.0 0.00 0.00 0.00 81 1015.4
20200529062833 64 269 0.0 0.0 0.00 0.00 0.00 81 1015.5
20200529062339 65 221 0.0 0.0 0.00 0.00 0.00 80 1015.5
20200529061822 65 241 0.0 1.0 0.00 0.00 0.00 80 1015.5
20200529061327 65 287 0.0 1.0 0.00 0.00 0.00 80 1015.7
20200529060830 65 244 0.0 0.0 0.00 0.00 0.00 80 1015.7
20200529060332 65 267 0.0 0.0 0.00 0.00 0.00 79 1015.7
20200529055834 65 244 0.0 0.0 0.00 0.00 0.00 79 1015.0
20200529055335 65 244 0.0 0.0 0.00 0.00 0.00 78 1015.0
20200529054837 66 245 0.0 0.0 0.00 0.00 0.00 78 1015.0
20200529054338 66 250 0.0 0.0 0.00 0.00 0.00 77 1016.0
20200529053821 66 248 0.0 0.0 0.00 0.00 0.00 77 1016.0
20200529053323 66 266 0.0 0.0 0.00 0.00 0.00 76 1016.0
20200529052824 66 266 0.0 0.0 0.00 0.00 0.00 76 1015.9
20200529052326 67 267 0.0 1.0 0.00 0.00 0.00 75 1015.9
20200529051826 67 265 0.0 1.0 0.00 0.00 0.00 75 1015.9
20200529051328 67 262 0.0 0.0 0.00 0.00 0.00 75 1015.1
20200529050831 67 262 0.0 0.0 0.00 0.00 0.00 74 1015.1
20200529050332 68 262 0.0 0.0 0.00 0.00 0.00 74 1015.1
20200529045837 68 262 0.0 0.0 0.00 0.00 0.00 73 1015.0
20200529045319 68 262 0.0 0.0 0.00 0.00 0.00 73 1015.0
20200529044822 68 262 0.0 0.0 0.00 0.00 0.00 72 1015.0
20200529044324 69 262 0.0 1.0 0.00 0.00 0.00 71 1014.7
20200529043831 69 262 0.0 0.0 0.00 0.00 0.00 71 1014.7
20200529043332 69 262 0.0 0.0 0.00 0.00 0.00 70 1014.7
20200529042833 70 262 0.0 0.0 0.00 0.00 0.00 70 1014.5
20200529042331 70 262 0.0 0.0 0.00 0.00 0.00 69 1014.5
20200529041834 70 262 0.0 0.0 0.00 0.00 0.00 68 1014.5
20200529041338 71 262 0.0 0.0 0.00 0.00 0.00 67 1014.5
20200529040821 71 262 0.0 0.0 0.00 0.00 0.00 67 1014.5
20200529040323 71 262 0.0 0.0 0.00 0.00 0.00 66 1014.5
20200529035825 72 262 0.0 0.0 0.00 0.00 0.00 65 1014.3
20200529035329 72 262 0.0 0.0 0.00 0.00 0.00 65 1014.3
20200529034831 72 263 0.0 2.0 0.00 0.00 0.00 64 1014.3
20200529034333 73 263 0.0 3.0 0.00 0.00 0.00 63 1013.9
20200529033837 73 261 0.0 0.0 0.00 0.00 0.00 62 1013.9
20200529033320 74 257 0.0 0.0 0.00 0.00 0.00 61 1013.9
20200529032826 74 257 0.0 0.0 0.00 0.00 0.00 60 1014.5
20200529032330 75 257 0.0 0.0 0.00 0.00 0.00 59 1014.5
20200529031832 75 257 0.0 2.0 0.00 0.00 0.00 59 1014.5
20200529031334 76 265 0.0 3.0 0.00 0.00 0.00 59 1013.7
20200529030835 76 286 0.0 3.0 0.00 0.00 0.00 58 1013.7
20200529030337 77 265 0.0 0.0 0.00 0.00 0.00 57 1013.7
20200529025820 77 257 0.0 0.0 0.00 0.00 0.00 57 1013.5
20200529025323 77 265 0.0 2.0 0.00 0.00 0.00 57 1013.5
20200529024825 78 236 0.0 3.0 0.00 0.00 0.00 56 1013.5
20200529024333 78 238 0.0 5.0 0.00 0.00 0.00 56 1013.2
20200529023834 78 268 0.0 6.0 0.00 0.00 0.00 55 1013.2
20200529023336 79 219 2.0 6.0 0.00 0.00 0.00 54 1013.2
20200529022838 79 218 2.0 10.0 0.00 0.00 0.00 54 1013.9
20200529022340 80 219 4.0 10.0 0.00 0.00 0.00 53 1013.9
20200529021819 80 246 3.0 9.0 0.00 0.00 0.00 52 1013.9
20200529021322 81 243 2.0 9.0 0.00 0.00 0.00 51 1013.4
20200529020825 81 254 1.0 7.0 0.00 0.00 0.00 50 1013.4
20200529020327 82 226 4.0 9.0 0.00 0.00 0.00 49 1013.4
20200529015829 82 209 4.0 9.0 0.00 0.00 0.00 48 1013.1
20200529015331 83 219 2.0 8.0 0.00 0.00 0.00 48 1013.1
20200529014834 84 269 4.0 8.0 0.00 0.00 0.00 46 1013.1
20200529014339 84 264 3.0 9.0 0.00 0.00 0.00 45 1012.9
20200529013839 84 250 3.0 9.0 0.00 0.00 0.00 45 1012.9
20200529013321 85 276 3.0 9.0 0.00 0.00 0.00 44 1012.9
20200529012823 85 212 5.0 11.0 0.00 0.00 0.00 43 1012.7
20200529012325 86 217 5.0 11.0 0.00 0.00 0.00 42 1012.7
20200529011828 86 247 3.0 7.0 0.00 0.00 0.00 41 1012.7
20200529011333 86 257 2.0 8.0 0.00 0.00 0.00 41 1012.8
20200529010832 87 260 3.0 11.0 0.00 0.00 0.00 40 1012.8
20200529010334 87 239 5.0 11.0 0.00 0.00 0.00 40 1012.8
20200529005837 88 226 3.0 9.0 0.00 0.00 0.00 39 1012.8
20200529005339 88 272 3.0 9.0 0.00 0.00 0.00 38 1012.8
20200529004825 88 277 2.0 9.0 0.00 0.00 0.00 38 1012.8
20200529004327 88 198 3.0 9.0 0.00 0.00 0.00 38 1012.8
20200529003831 88 275 3.0 6.0 0.00 0.00 0.00 38 1012.8
20200529003334 89 282 3.0 10.0 0.00 0.00 0.00 37 1012.8